Location: Dover
(48.8500°N, 53.9833°W)
Time: 07:06:54
(UTC+00:00)

SL-19 R/B - Pass Details

Date: 14 November 2025
Orbit: 795 x 1008 km, 99.6° (Epoch: 13 December)

Event Time Altitude Azimuth Distance (km) Brightness Sun altitude
Rises 21:25:30 0° 147° (SSE) 3,320 7.1 -14.6°
Reaches altitude 10° 21:27:53 10° 142° (SE) 2,378 6.3 -15.0°
Maximum altitude 21:32:55 52° 67° (ENE) 986 4.2 -15.8°
Drops below altitude 10° 21:37:59 10° 352° (N) 2,384 6.5 -16.6°
Sets 21:40:22 0° 348° (NNW) 3,329 7.3 -17.0°
